| time (UTC) | temp C | wind direction | speed KPH | gust KPH | rain 1hr cm | rain 24hr cm | rain mn cm | humidity % | barometer mb |
| 20260504195004 | 19 | 209 | 8.0 | 19.3 | 0.00 | 0.00 | 0.00 | 48 | 1010.1 |
| 20260504194505 | 19 | 224 | 8.0 | 19.3 | 0.00 | 0.00 | 0.00 | 47 | 1010.2 |
| 20260504194005 | 19 | 229 | 9.7 | 22.5 | 0.00 | 0.00 | 0.00 | 46 | 1010.2 |
| 20260504193504 | 19 | 214 | 8.0 | 24.1 | 0.00 | 0.00 | 0.00 | 45 | 1010.2 |
| 20260504193005 | 19 | 213 | 6.4 | 19.3 | 0.00 | 0.00 | 0.00 | 47 | 1010.2 |
| 20260504192504 | 19 | 211 | 9.7 | 22.5 | 0.00 | 0.00 | 0.00 | 49 | 1010.3 |
| 20260504192004 | 19 | 230 | 9.7 | 19.3 | 0.00 | 0.00 | 0.00 | 47 | 1010.2 |
| 20260504191505 | 19 | 227 | 8.0 | 19.3 | 0.00 | 0.00 | 0.00 | 49 | 1010.2 |
| 20260504191006 | 18 | 211 | 9.7 | 29.0 | 0.00 | 0.00 | 0.00 | 46 | 1010.3 |
| 20260504190505 | 19 | 215 | 8.0 | 20.9 | 0.00 | 0.00 | 0.00 | 45 | 1010.3 |
| 20260504190005 | 19 | 218 | 8.0 | 22.5 | 0.00 | 0.00 | 0.00 | 47 | 1010.4 |
| 20260504185506 | 19 | 222 | 8.0 | 19.3 | 0.00 | 0.00 | 0.00 | 45 | 1010.3 |
| 20260504185005 | 19 | 220 | 4.8 | 11.3 | 0.00 | 0.00 | 0.00 | 46 | 1010.4 |
| 20260504184504 | 18 | 230 | 8.0 | 22.5 | 0.00 | 0.00 | 0.00 | 47 | 1010.4 |
| 20260504184005 | 19 | 222 | 8.0 | 24.1 | 0.00 | 0.00 | 0.00 | 47 | 1010.5 |
| 20260504183505 | 18 | 245 | 11.3 | 24.1 | 0.00 | 0.00 | 0.00 | 44 | 1010.6 |
| 20260504182505 | 19 | 219 | 8.0 | 22.5 | 0.00 | 0.00 | 0.00 | 44 | 1010.7 |
| 20260504182005 | 19 | 227 | 4.8 | 24.1 | 0.00 | 0.00 | 0.00 | 49 | 1010.7 |
| 20260504181506 | 19 | 220 | 4.8 | 19.3 | 0.00 | 0.00 | 0.00 | 44 | 1010.8 |
| 20260504181004 | 19 | 234 | 8.0 | 16.1 | 0.00 | 0.00 | 0.00 | 44 | 1010.8 |
| 20260504180505 | 19 | 217 | 4.8 | 12.9 | 0.00 | 0.00 | 0.00 | 43 | 1010.9 |
| 20260504180005 | 19 | 226 | 11.3 | 27.4 | 0.00 | 0.00 | 0.00 | 40 | 1010.9 |
| 20260504175505 | 19 | 232 | 11.3 | 22.5 | 0.00 | 0.00 | 0.00 | 40 | 1011.0 |
| 20260504174505 | 19 | 239 | 9.7 | 20.9 | 0.00 | 0.00 | 0.00 | 40 | 1011.0 |
| 20260504174005 | 20 | 212 | 9.7 | 20.9 | 0.00 | 0.00 | 0.00 | 42 | 1011.2 |
| 20260504172504 | 19 | 231 | 11.3 | 33.8 | 0.00 | 0.00 | 0.00 | 40 | 1011.2 |
| 20260504172005 | 18 | 237 | 9.7 | 22.5 | 0.00 | 0.00 | 0.00 | 41 | 1011.1 |
| 20260504171504 | 18 | 238 | 14.5 | 27.4 | 0.00 | 0.00 | 0.00 | 38 | 1011.2 |
| 20260504171005 | 18 | 211 | 14.5 | 25.7 | 0.00 | 0.00 | 0.00 | 38 | 1011.2 |
| 20260504170505 | 18 | 232 | 14.5 | 32.2 | 0.00 | 0.00 | 0.00 | 38 | 1011.2 |
| 20260504151005 | 16 | 251 | 8.0 | 32.2 | 0.00 | 0.00 | 0.00 | 46 | 1012.5 |
| 20260504150505 | 16 | 255 | 8.0 | 32.2 | 0.00 | 0.00 | 0.00 | 45 | 1012.6 |
| 20260504141004 | 15 | 243 | 11.3 | 24.1 | 0.00 | 0.00 | 0.00 | 46 | 1013.0 |
| 20260504140504 | 15 | 223 | 8.0 | 24.1 | 0.00 | 0.00 | 0.00 | 48 | 1013.1 |
| 20260504130505 | 13 | 215 | 8.0 | 19.3 | 0.00 | 0.00 | 0.00 | 55 | 1013.5 |
| 20260504110505 | 5 | 262 | 1.6 | 4.8 | 0.00 | 0.00 | 0.00 | 87 | 1013.4 |
| 20260504100504 | 2 | 55 | 0.0 | 1.6 | 0.00 | 0.00 | 0.00 | 89 | 1013.2 |
| 20260504082004 | 2 | 55 | 0.0 | 1.6 | 0.00 | 0.00 | 0.00 | 87 | 1012.6 |
| 20260504081505 | 2 | 55 | 0.0 | 1.6 | 0.00 | 0.00 | 0.00 | 87 | 1012.6 |
| 20260504081004 | 2 | 55 | 0.0 | 1.6 | 0.00 | 0.00 | 0.00 | 87 | 1012.6 |
| 20260504080504 | 2 | 55 | 0.0 | 1.6 | 0.00 | 0.00 | 0.00 | 86 | 1012.6 |
| 20260504050504 | 3 | 61 | 1.6 | 1.6 | 0.00 | 0.00 | 0.00 | 82 | 1012.1 |
| 20260504045504 | 3 | 61 | 1.6 | 1.6 | 0.00 | 0.00 | 0.00 | 80 | 1012.1 |
| 20260504044505 | 3 | 61 | 1.6 | 3.2 | 0.00 | 0.00 | 0.00 | 78 | 1012.2 |
| 20260504044004 | 3 | 61 | 0.0 | 1.6 | 0.00 | 0.00 | 0.00 | 77 | 1012.2 |
| 20260504043504 | 3 | 61 | 0.0 | 0.0 | 0.00 | 0.00 | 0.00 | 78 | 1012.2 |
| 20260504043004 | 3 | 61 | 0.0 | 1.6 | 0.00 | 0.00 | 0.00 | 77 | 1012.1 |
| 20260504042504 | 3 | 61 | 0.0 | 0.0 | 0.00 | 0.00 | 0.00 | 78 | 1012.2 |
| 20260504042004 | 3 | 61 | 0.0 | 0.0 | 0.00 | 0.00 | 0.00 | 78 | 1012.0 |
| 20260504041504 | 3 | 61 | 0.0 | 1.6 | 0.00 | 0.00 | 0.00 | 77 | 1012.0 |
| 20260504041004 | 4 | 61 | 0.0 | 1.6 | 0.00 | 0.00 | 0.00 | 77 | 1011.9 |
| 20260504040505 | 4 | 61 | 0.0 | 1.6 | 0.00 | 0.00 | 0.00 | 77 | 1012.0 |
| 20260504040004 | 4 | 61 | 0.0 | 0.0 | 0.00 | 0.00 | 0.00 | 77 | 1012.0 |
| 20260504035504 | 4 | 61 | 0.0 | 0.0 | 0.00 | 0.00 | 0.00 | 76 | 1012.0 |
| 20260504035004 | 4 | 61 | 0.0 | 1.6 | 0.00 | 0.00 | 0.00 | 75 | 1011.9 |
| 20260504034005 | 4 | 61 | 0.0 | 1.6 | 0.00 | 0.00 | 0.00 | 75 | 1011.8 |
| 20260504033504 | 4 | 61 | 0.0 | 1.6 | 0.00 | 0.00 | 0.00 | 75 | 1011.8 |
| 20260504033005 | 5 | 61 | 0.0 | 1.6 | 0.00 | 0.00 | 0.00 | 74 | 1011.8 |
| 20260504032505 | 5 | 61 | 0.0 | 1.6 | 0.00 | 0.00 | 0.00 | 73 | 1011.8 |
| 20260504032004 | 5 | 61 | 0.0 | 1.6 | 0.00 | 0.00 | 0.00 | 72 | 1011.8 |
| 20260504031504 | 5 | 61 | 0.0 | 1.6 | 0.00 | 0.00 | 0.00 | 72 | 1011.9 |
| 20260504030504 | 5 | 24 | 1.6 | 3.2 | 0.00 | 0.00 | 0.00 | 72 | 1011.8 |
| 20260504030004 | 5 | 0 | 0.0 | 1.6 | 0.00 | 0.00 | 0.00 | 73 | 1011.8 |
| 20260504025505 | 5 | 0 | 0.0 | 1.6 | 0.00 | 0.00 | 0.00 | 73 | 1011.7 |
| 20260504025005 | 5 | 0 | 0.0 | 3.2 | 0.00 | 0.00 | 0.00 | 74 | 1011.8 |
| 20260504024504 | 5 | 293 | 0.0 | 1.6 | 0.00 | 0.00 | 0.00 | 73 | 1011.8 |
| 20260504023504 | 5 | 293 | 0.0 | 1.6 | 0.00 | 0.00 | 0.00 | 70 | 1011.9 |
| 20260504023004 | 6 | 293 | 0.0 | 1.6 | 0.00 | 0.00 | 0.00 | 69 | 1011.9 |
| 20260504022504 | 6 | 293 | 0.0 | 1.6 | 0.00 | 0.00 | 0.00 | 68 | 1011.8 |
| 20260504022004 | 6 | 293 | 0.0 | 1.6 | 0.00 | 0.00 | 0.00 | 70 | 1011.8 |
| 20260504021505 | 6 | 293 | 0.0 | 1.6 | 0.00 | 0.00 | 0.00 | 69 | 1011.9 |
| 20260504021004 | 6 | 293 | 0.0 | 0.0 | 0.00 | 0.00 | 0.00 | 70 | 1011.8 |
| 20260504020005 | 6 | 293 | 0.0 | 1.6 | 0.00 | 0.00 | 0.00 | 69 | 1011.7 |
| 20260504015504 | 6 | 293 | 0.0 | 1.6 | 0.00 | 0.00 | 0.00 | 68 | 1011.7 |
| 20260504015004 | 6 | 293 | 0.0 | 1.6 | 0.00 | 0.00 | 0.00 | 68 | 1011.7 |
| 20260504014504 | 6 | 293 | 0.0 | 1.6 | 0.00 | 0.00 | 0.00 | 66 | 1011.6 |
| 20260504014004 | 6 | 293 | 0.0 | 1.6 | 0.00 | 0.00 | 0.00 | 66 | 1011.6 |
| 20260504013504 | 7 | 293 | 0.0 | 1.6 | 0.00 | 0.00 | 0.00 | 66 | 1011.6 |
| 20260504013004 | 7 | 293 | 0.0 | 1.6 | 0.00 | 0.00 | 0.00 | 65 | 1011.5 |
| 20260504012504 | 7 | 293 | 0.0 | 0.0 | 0.00 | 0.00 | 0.00 | 65 | 1011.5 |
| 20260504010504 | 7 | 293 | 0.0 | 1.6 | 0.00 | 0.00 | 0.00 | 59 | 1011.2 |
| 20260504010004 | 7 | 293 | 0.0 | 1.6 | 0.00 | 0.00 | 0.00 | 59 | 1011.1 |
| 20260504005504 | 7 | 293 | 0.0 | 0.0 | 0.00 | 0.00 | 0.00 | 58 | 1011.1 |
| 20260504005005 | 8 | 293 | 0.0 | 1.6 | 0.00 | 0.00 | 0.00 | 55 | 1011.0 |
| 20260504004504 | 8 | 293 | 0.0 | 1.6 | 0.00 | 0.00 | 0.00 | 55 | 1011.0 |
| 20260504004004 | 8 | 293 | 0.0 | 0.0 | 0.00 | 0.00 | 0.00 | 53 | 1010.9 |
| 20260504003505 | 8 | 293 | 0.0 | 0.0 | 0.00 | 0.00 | 0.00 | 53 | 1010.8 |
| 20260504003004 | 8 | 293 | 0.0 | 1.6 | 0.00 | 0.00 | 0.00 | 50 | 1010.8 |
| 20260504002504 | 8 | 293 | 0.0 | 1.6 | 0.00 | 0.00 | 0.00 | 48 | 1010.7 |
| 20260504002004 | 8 | 293 | 0.0 | 1.6 | 0.00 | 0.00 | 0.00 | 47 | 1010.7 |
| 20260504001504 | 8 | 293 | 0.0 | 1.6 | 0.00 | 0.00 | 0.00 | 49 | 1010.6 |
| 20260504001004 | 9 | 293 | 0.0 | 1.6 | 0.00 | 0.00 | 0.00 | 46 | 1010.4 |
| 20260504000504 | 9 | 293 | 0.0 | 1.6 | 0.00 | 0.00 | 0.00 | 45 | 1010.4 |
| 20260504000004 | 10 | 293 | 0.0 | 1.6 | 0.00 | 0.00 | 0.00 | 46 | 1010.4 |
| 20260503235504 | 10 | 293 | 0.0 | 1.6 | 0.00 | 0.00 | 0.00 | 44 | 1010.2 |
| 20260503235004 | 10 | 293 | 0.0 | 1.6 | 0.00 | 0.00 | 0.00 | 42 | 1010.2 |
| 20260503234504 | 11 | 293 | 0.0 | 3.2 | 0.00 | 0.00 | 0.00 | 44 | 1010.2 |
| 20260503234005 | 11 | 293 | 0.0 | 3.2 | 0.00 | 0.00 | 0.00 | 43 | 1010.2 |
| 20260503233504 | 12 | 274 | 1.6 | 4.8 | 0.00 | 0.00 | 0.00 | 37 | 1010.1 |
| 20260503233004 | 12 | 342 | 1.6 | 4.8 | 0.00 | 0.00 | 0.00 | 36 | 1010.0 |
| 20260503232505 | 12 | 351 | 0.0 | 11.3 | 0.00 | 0.00 | 0.00 | 36 | 1010.0 |
| 20260503232004 | 12 | 307 | 3.2 | 11.3 | 0.00 | 0.00 | 0.00 | 36 | 1010.0 |
| 20260503231504 | 12 | 315 | 1.6 | 4.8 | 0.00 | 0.00 | 0.00 | 36 | 1010.0 |
| 20260503231004 | 12 | 258 | 1.6 | 9.7 | 0.00 | 0.00 | 0.00 | 37 | 1009.9 |
| 20260503230504 | 12 | 260 | 4.8 | 12.9 | 0.00 | 0.00 | 0.00 | 35 | 1009.9 |
| 20260503230004 | 12 | 247 | 4.8 | 9.7 | 0.00 | 0.00 | 0.00 | 33 | 1009.9 |
| 20260503225504 | 12 | 280 | 3.2 | 9.7 | 0.00 | 0.00 | 0.00 | 35 | 1009.9 |
| 20260503225004 | 12 | 281 | 1.6 | 11.3 | 0.00 | 0.00 | 0.00 | 34 | 1009.9 |
| 20260503224504 | 12 | 314 | 4.8 | 12.9 | 0.00 | 0.00 | 0.00 | 37 | 1009.9 |
| 20260503224004 | 12 | 320 | 4.8 | 14.5 | 0.00 | 0.00 | 0.00 | 33 | 1009.9 |
| 20260503223504 | 12 | 335 | 4.8 | 16.1 | 0.00 | 0.00 | 0.00 | 33 | 1009.8 |
| 20260503223005 | 12 | 340 | 4.8 | 16.1 | 0.00 | 0.00 | 0.00 | 35 | 1009.7 |
| 20260503222504 | 13 | 316 | 3.2 | 16.1 | 0.00 | 0.00 | 0.00 | 34 | 1009.6 |
| 20260503222004 | 13 | 328 | 4.8 | 14.5 | 0.00 | 0.00 | 0.00 | 34 | 1009.6 |
| 20260503221504 | 13 | 349 | 4.8 | 24.1 | 0.00 | 0.00 | 0.00 | 34 | 1009.6 |
| 20260503221004 | 13 | 9 | 6.4 | 24.1 | 0.00 | 0.00 | 0.00 | 34 | 1009.6 |
| 20260503220505 | 13 | 3 | 8.0 | 16.1 | 0.00 | 0.00 | 0.00 | 34 | 1009.7 |
| 20260503215504 | 13 | 288 | 6.4 | 19.3 | 0.00 | 0.00 | 0.00 | 35 | 1009.6 |
| 20260503215004 | 13 | 226 | 8.0 | 25.7 | 0.00 | 0.00 | 0.00 | 34 | 1009.6 |
| 20260503214504 | 13 | 274 | 11.3 | 22.5 | 0.00 | 0.00 | 0.00 | 33 | 1009.7 |
| 20260503213504 | 13 | 0 | 4.8 | 25.7 | 0.00 | 0.00 | 0.00 | 37 | 1009.6 |
| 20260503212004 | 13 | 347 | 11.3 | 29.0 | 0.00 | 0.00 | 0.00 | 35 | 1009.5 |
| 20260503211504 | 13 | 302 | 8.0 | 24.1 | 0.00 | 0.00 | 0.00 | 35 | 1009.6 |
| 20260503211005 | 13 | 354 | 14.5 | 29.0 | 0.00 | 0.00 | 0.00 | 35 | 1009.6 |
| 20260503210504 | 13 | 2 | 9.7 | 29.0 | 0.00 | 0.00 | 0.00 | 34 | 1009.5 |
| 20260503210004 | 13 | 0 | 4.8 | 14.5 | 0.00 | 0.00 | 0.00 | 38 | 1009.5 |
| 20260503205004 | 13 | 337 | 4.8 | 19.3 | 0.00 | 0.00 | 0.00 | 35 | 1009.4 |
| 20260503204504 | 13 | 28 | 9.7 | 24.1 | 0.00 | 0.00 | 0.00 | 36 | 1009.5 |
| 20260503204004 | 13 | 34 | 9.7 | 33.8 | 0.00 | 0.00 | 0.00 | 36 | 1009.4 |
| 20260503203504 | 13 | 30 | 8.0 | 27.4 | 0.00 | 0.00 | 0.00 | 36 | 1009.3 |
| 20260503203004 | 13 | 262 | 9.7 | 24.1 | 0.00 | 0.00 | 0.00 | 34 | 1009.4 |
| 20260503202004 | 13 | 285 | 9.7 | 24.1 | 0.00 | 0.00 | 0.00 | 36 | 1009.4 |
| 20260503201504 | 13 | 275 | 6.4 | 20.9 | 0.00 | 0.00 | 0.00 | 38 | 1009.4 |
| 20260503201004 | 13 | 281 | 9.7 | 20.9 | 0.00 | 0.00 | 0.00 | 35 | 1009.4 |
| 20260503200504 | 13 | 348 | 9.7 | 25.7 | 0.00 | 0.00 | 0.00 | 36 | 1009.3 |
| 20260503195504 | 13 | 342 | 8.0 | 19.3 | 0.00 | 0.00 | 0.00 | 34 | 1009.4 |